Regional Weather Roundup
Issued by NWS

Home | Current Version | Previous Version | Text Only | Print | Product List | Glossary Off
Versions: 1 2 3 4 5 6 7 8 9 10 11 12 13 14 15 16 17 18 19 20 21 22 23 24 25 26 27 28 29 30 31 32 33 34 35 36 37 38 39 40 41 42 43 44 45 46 47 48 49 50

000
ASUS43 KMPX 110510
RWRMN
WEATHER ROUNDUP FOR MINNESOTA
NATIONAL WEATHER SERVICE TWIN CITIES/CHANHASSEN MN
1100 PM CST WED FEB 10 2016


NOTE: "FAIR" INDICATES FEW OR NO CLOUDS BELOW 12,000 FEET WITH NO
SIGNIFICANT WEATHER AND/OR OBSTRUCTIONS TO VISIBILITY. N/A MEANS
CURRENT SKY AND/OR WEATHER CONDITIONS ARE NOT AVAILABLE.

MNZ060>063-068>070-110600-
   Twin Cities Metro

CITY           SKY/WX    TMP DP  RH WIND       PRES   REMARKS
TWIN CITIES    CLOUDY    10  -4  53 NW3       30.27R
ST PAUL        CLOUDY     9  -4  55 NW8       30.28S WCI  -3
CRYSTAL        CLOUDY    10  -4  53 CALM      30.26R
BLAINE         CLOUDY     9   0  66 NW3       30.25S
LAKEVILLE      MOCLDY     9   0  66 NW3       30.25R
EDEN PRAIRIE   CLOUDY    10  -4  53 NW3       30.25R
SOUTH ST PAUL  CLOUDY    11  -3  54 NW3       30.27R
LAKE ELMO      FAIR       9   0  66 CALM      30.26R
$$
MNZ001>005-007-008-013>017-022>024-027-028-110600-
   Northwest Minnesota

CITY           SKY/WX    TMP DP  RH WIND       PRES   REMARKS
BEMIDJI        CLOUDY   -11 -15  82 CALM      30.23R
HALLOCK        CLOUDY    -2  -8  78 CALM      30.30S
ROSEAU         CLOUDY    -9 -15  77 CALM      30.27F
WARROAD        CLOUDY   -18 -24  76 SW5       30.27S WCI -31
THIEF RVR FALL CLOUDY     0 N/A N/A N3        30.28S
CROOKSTON      CLOUDY     0  -6  78 CALM      30.32R
FOSSTON        CLOUDY   -11 -18  70 CALM      30.26R
DETROIT LAKES  CLOUDY     7   3  85 CALM      30.25R
MOORHEAD       CLOUDY     9   0  66 N8        30.31R WCI  -4
PARK RAPIDS    CLOUDY     2  -8  63 CALM      30.22R
MAHNOMEN       FAIR      -1  -7  76 CALM      30.26R
$$
MNZ006-009>011-018-025>026-110600-
   North Central Minnesota

CITY           SKY/WX    TMP DP  RH WIND       PRES   REMARKS
BAUDETTE       CLOUDY   -20 -25  77 W5        30.25R WCI -33
FLAG ISLAND    CLOUDY   -11 -17  77 CALM      30.25R
INTL FALLS     CLOUDY   -19 -26  70 CALM      30.22F
WASKISH        CLOUDY   -13 -18  77 CALM      30.25R
LONGVILLE      CLEAR     -4  -9  77 CALM      30.22S
GRAND RAPIDS   CLOUDY    -8 -15  71 CALM      30.21R
CRANE LAKE     PTCLDY   -22 -27  76 SE1       30.25R
ORR            CLOUDY   -17 -22  76 CALM      30.19R
COOK           PTCLDY   -20 -26  76 CALM      30.22R
WALKER         FAIR      -6 -11  77 CALM      30.23S
$$
MNZ012-019>021-037-110600-
   Northeast Minnesota

CITY           SKY/WX    TMP DP  RH WIND       PRES   REMARKS
DULUTH         CLEAR     -3 -12  65 N10       30.16F WCI -20
ELY            CLOUDY   -20 -26  76 CALM      30.19R
HIBBING        CLOUDY   -15 -19  82 CALM      30.20R
EVELETH        CLOUDY    -8 -13  77 NW5       30.20R WCI -19
DULUTH HARBOR  PTCLDY     5  -6  61 NW10      30.27R WCI -10
TWO HARBORS    CLEAR      1  -8  66 NW3       30.17S
SILVER BAY     CLEAR      0  -9  65 CALM      30.17S
GRAND MARAIS     N/A      3  -7  63 S3        30.21R
G MARAIS ARPRT CLEAR     -8 -15  71 NW9       30.07R WCI -25
$$
MNZ029>031-032-039>041-046>048-054>057-064-110600-
   West Central Minnesota

CITY           SKY/WX    TMP DP  RH WIND       PRES   REMARKS
FERGUS FALLS   CLOUDY     9   1  72 N3        30.30R
WHEATON        CLOUDY     7   3  85 W3        30.30R
MORRIS         CLOUDY    10   5  79 CALM      30.24S
ALEXANDRIA     CLOUDY     9  -1  64 CALM      30.23R
ELBOW LAKE     CLOUDY    11   2  67 CALM      30.26R HAZE
WADENA         CLOUDY     3  -4  72 CALM      30.23R
GLENWOOD       CLOUDY    10   0  61 CALM      30.24R
APPLETON       CLOUDY    10   5  79 CALM      30.27S
BENSON         CLOUDY    10   5  79 CALM      30.26R
ORTONVILLE     CLOUDY    10   5  79 CALM      30.25F
MADISON        CLOUDY     9   1  72 N3        30.27S
WILLMAR        CLOUDY    12   3  67 CALM      30.26R
$$
MNZ033>034-036-042>043-049>051-058-059-110600-
   Central Minnesota

CITY           SKY/WX    TMP DP  RH WIND       PRES   REMARKS
ST CLOUD       CLEAR      7  -2  66 NW3       30.25R
SAUK CENTRE    FAIR       7  -3  63 CALM      30.24R
PAYNESVILLE    PTCLDY     5  -1  77 CALM      30.25R
AITKIN         MOCLDY    -6 -13  71 NW3       30.22R
PINE RIVER     CLEAR     -2  -8  78 CALM      30.27R
BRAINERD       CLEAR      0  -8  69 NW5       30.24R WCI -10
STAPLES        CLEAR      3  -8  60 N5        30.24R WCI  -6
LONG PRAIRIE   MOCLDY     5  -4  66 NW3       30.24R
LITTLE FALLS   CLOUDY     9  -6  52 CALM      30.25R
LITCHFIELD     CLOUDY    10   1  67 CALM      30.25R
BUFFALO        PTCLDY     9  -1  62 CALM      30.27S
MAPLE LAKE     PTCLDY     9   0  67 CALM      30.26R
$$
MNZ037-044-045-052-053-110600-
   East Central Minnesota

CITY           SKY/WX    TMP DP  RH WIND       PRES   REMARKS
PRINCETON      CLEAR      3  -2  78 CALM      30.25R
MORA           PTCLDY     5  -6  61 CALM      30.26R
CAMBRIDGE      PTCLDY     7  -4  61 CALM      30.24R
RUSH CITY      MOCLDY     4  -6  61 NW3       30.26R
MOOSE LAKE     CLEAR      0  -9  65 N3        30.21S
HINCKLEY       FAIR       5  -8  56 NW3       30.24R
CLOQUET        CLEAR     -2 -11  65 NW7       30.18F WCI -16
MCGREGOR       CLEAR      0  -8  71 NW3       30.22F
$$
MNZ071>073-080-081-089-090-097-098-110600-
   Southwest Minnesota

CITY           SKY/WX    TMP DP  RH WIND       PRES   REMARKS
MONTEVIDEO     CLOUDY     7   1  78 CALM      30.28S
GRANITE FALLS  CLOUDY    10   4  76 N5        30.28S WCI   1
CANBY          CLOUDY    16  10  80 N6        30.26S WCI   7
MARSHALL       CLOUDY    13   6  74 N7        30.25S WCI   3
REDWOOD FALLS  CLOUDY    13   3  64 CALM      30.26R HAZE
OLIVIA         CLOUDY    12   5  73 N5        30.25S WCI   4
PIPESTONE      CLOUDY    12   1  62 E5        30.19R WCI   4
WINDOM         CLOUDY    10   5  79 CALM      30.22R
WORTHINGTON    CLOUDY    10   3  72 NE9       30.22R WCI  -2
JACKSON        CLOUDY    10   3  72 N3        30.22R
TRACY          CLOUDY    14   8  78 N5        30.23S WCI   6
SLAYTON        CLOUDY    10   7  85 N5        30.21S WCI   2
$$
MNZ065>067-074>077-082>085-091>093-110600-
   South Central Minnesota

CITY           SKY/WX    TMP DP  RH WIND       PRES   REMARKS
MANKATO        CLOUDY    10   0  61 N6        30.25R WCI   1
NEW ULM        CLOUDY     9   1  72 CALM      30.26R
ST JAMES       CLOUDY    10   7  85 NW3       30.26R
FAIRMONT       CLOUDY    10   1  67 N6        30.22R WCI   1
GLENCOE        CLOUDY    11   2  66 CALM      30.25S
FARIBAULT        N/A      9   0  66 CALM      30.24S
OWATONNA       CLOUDY     9  -2  61 CALM      30.22S
WASECA         CLOUDY    10   1  67 CALM      30.25R
ALBERT LEA     CLOUDY     7   0  72 CALM      30.21R
$$
MNZ078>079-086>088-094>096-110600-
   Southeast Minnesota

CITY           SKY/WX    TMP DP  RH WIND       PRES   REMARKS
ROCHESTER      CLOUDY     6  -2  69 N7        30.21R WCI  -6
RED WING       CLOUDY     9  -4  56 CALM      30.26R
STANTON        CLOUDY    10   2  70 CALM      30.24R
DODGE CENTER   CLOUDY     7  -2  66 N3        30.20R
WINONA         CLOUDY    10   1  67 CALM      30.26R
AUSTIN         CLOUDY     5  -2  72 N5        30.20S WCI  -4
PRESTON        CLOUDY     5  -3  69 N6        30.20R WCI  -6
$$
ABBREVIATIONS USED IN REMARKS
   TC - TEMPERATURES IN CELSIUS
  WCI - WIND CHILL INDEX
   HX - HEAT INDEX
  VSB - VISIBILITY
$$



USA.gov is the U.S. government's official web portal to all federal, state and local government web resources and services.